Location: Fort Wayne
(41.1310°N, 85.1290°W)
Time: 23:27:14
(UTC-04:00)

Amateur Radio Satellites - All Passes

Search period start: 29 June 2015 22:57
Search period end: 30 June 2015 22:57
Location: Fort Wayne, 41.1310°N, 85.1290°W

Satellite Date Start Highest point End Downlink Frequencies (MHz)
Time Altitude Azimuth
ESTCUBE 1 29 Jun 23:07:18 23:10:27 19° 66° (ENE) 23:13:45 437.505/2401.250
UKube-1 29 Jun 23:07:47 23:11:58 49° 73° (ENE) 23:16:12 .
Oscar 11 29 Jun 23:12:02 23:15:51 30° 265° (W) 23:19:37 145.826/435.025
UWE-3 29 Jun 23:27:48 23:31:30 27° 265° (W) 23:35:05 435.000/436.395/437.385
CUBEBUG 1 29 Jun 23:29:16 23:32:58 27° 69° (ENE) 23:36:43 437.445
FUNcube-1 29 Jun 23:29:37 23:33:30 33° 263° (W) 23:37:17 145.935
UNISAT 6 29 Jun 23:32:20 23:35:51 24° 94° (E) 23:39:27 437.425
50 SAT 29 Jun 23:32:55 23:36:41 58° 75° (ENE) 23:40:28 437.505
AUBIESAT-1 29 Jun 23:40:30 23:43:24 19° 297° (WNW) 23:46:20 437.475
VELOX 1 29 Jun 23:44:25 23:48:52 72° 75° (ENE) 23:53:21 145.980
QB50P1 29 Jun 23:49:01 23:51:15 14° 90° (E) 23:53:39 145.935-145.965
HUMSAT D 29 Jun 23:53:56 23:57:48 38° 262° (W) 00:01:39 437.325/437.525
Cosmos 2499 30 Jun 00:03:16 00:10:55 71° 266° (W) 00:19:10 435.465 / 435.565
NANOSAT C BR1 30 Jun 00:04:38 00:07:49 21° 93° (E) 00:11:05 145.865
GONETS M04 30 Jun 00:06:23 00:11:23 16° 282° (WNW) 00:15:48
POLYITAN 1 30 Jun 00:11:21 00:14:52 26° 95° (E) 00:18:25 437.675
DUCHIFAT 1 30 Jun 00:13:15 00:16:44 26° 95° (E) 00:20:16 145.980
DX 1 30 Jun 00:15:15 00:19:02 27° 264° (W) 00:22:47 434.975-435.025
ANTELSAT 30 Jun 00:16:08 00:20:29 74° 103° (ESE) 00:24:53 437.575/2403.000
TISAT 1 30 Jun 00:19:51 00:22:42 18° 67° (ENE) 00:25:40 437.305
AISAT 30 Jun 00:30:12 00:34:20 35° 263° (W) 00:38:26 437.250
TIGRISAT 30 Jun 00:30:58 00:35:17 79° 286° (WNW) 00:39:41 435.000
QB50P2 30 Jun 00:41:28 00:45:39 59° 101° (E) 00:49:48 145.880/145.840
ESTCUBE 1 30 Jun 00:42:45 00:47:04 42° 262° (W) 00:51:23 437.505/2401.250
POPSAT HIP 1 30 Jun 00:43:37 00:47:47 60° 101° (E) 00:51:56 437.405
UKube-1 30 Jun 00:45:56 00:48:26 15° 270° (W) 00:50:46 .
SPROUT 30 Jun 00:51:12 00:55:26 58° 74° (ENE) 00:59:41 437.525
BUGSAT 1 30 Jun 00:53:45 00:57:43 48° 99° (E) 01:01:38 437.445
CUBEBUG 1 30 Jun 01:05:23 01:09:16 28° 265° (W) 01:13:05 437.445
UNISAT 6 30 Jun 01:08:50 01:12:39 30° 290° (WNW) 01:16:27 437.425
QB50P1 30 Jun 01:23:23 01:27:26 46° 287° (WNW) 01:31:26 145.935-145.965
VELOX 1 30 Jun 01:25:08 01:26:01 10° 273° (W) 01:26:37 145.980
BEESAT 30 Jun 01:29:38 01:32:55 19° 65° (ENE) 01:36:21 436.000
NANOSAT C BR1 30 Jun 01:39:59 01:43:43 31° 290° (WNW) 01:47:24 145.865
SWISSCUBE 30 Jun 01:43:33 01:47:33 28° 68° (ENE) 01:51:41 437.505
ITUPSAT 1 30 Jun 01:46:18 01:50:16 27° 68° (ENE) 01:54:20 437.325
POLYITAN 1 30 Jun 01:47:11 01:50:44 26° 291° (WNW) 01:54:11 437.675
DUCHIFAT 1 30 Jun 01:48:59 01:52:30 26° 291° (WNW) 01:55:56 145.980
TISAT 1 30 Jun 01:54:11 01:58:12 40° 262° (W) 02:02:13 437.305
ANTELSAT 30 Jun 01:55:28 01:56:46 11° 297° (WNW) 01:57:50 437.575/2403.000
PCSat 30 Jun 01:58:23 02:02:53 26° 47° (NE) 02:07:27 145.827
Cosmos 2499 30 Jun 02:00:34 02:03:03 11° 281° (W) 02:04:54 435.465 / 435.565
Cosmos 2491 30 Jun 02:05:45 02:10:30 16° 57° (ENE) 02:15:46 435.465 / 435.565
QB50P2 30 Jun 02:19:08 02:21:06 13° 296° (WNW) 02:22:52 145.880/145.840
POPSAT HIP 1 30 Jun 02:21:20 02:23:12 12° 296° (WNW) 02:24:52 437.405
SPROUT 30 Jun 02:30:04 02:31:57 12° 271° (W) 02:33:37 437.525
BUGSAT 1 30 Jun 02:30:36 02:32:48 14° 295° (WNW) 02:34:51 437.445
KKS-1 30 Jun 02:32:24 02:34:36 14° 64° (ENE) 02:36:59 437.445
SO-50 30 Jun 02:44:27 02:48:23 23° 43° (NE) 02:52:21 436.795
Oscar 19 30 Jun 02:52:36 02:57:34 49° 99° (E) 03:02:32 437.125/150
ITAMSAT 1 30 Jun 02:54:27 02:56:56 14° 88° (E) 02:59:42 435.822/435.867
BEESAT 30 Jun 03:05:51 03:10:27 47° 261° (W) 03:15:04 436.000
SWISSCUBE 30 Jun 03:21:06 03:25:21 31° 264° (W) 03:29:34 437.505
ITUPSAT 1 30 Jun 03:23:46 03:28:05 32° 264° (W) 03:32:22 437.325
RS-15 30 Jun 03:32:50 03:43:01 50° 112° (ESE) 03:53:37 29.354- 29.394
STARS 30 Jun 03:35:19 03:39:22 37° 71° (ENE) 03:43:27 437.465
PCSat 30 Jun 03:41:21 03:46:35 49° 247° (WSW) 03:51:46 145.827
AIST 1 30 Jun 03:43:08 03:46:52 27° 74° (ENE) 03:50:37
JAS-2 30 Jun 03:50:25 03:54:27 18° 90° (E) 03:59:06 435.910
Gurwin Techsat 1B 30 Jun 03:55:41 04:00:55 57° 100° (E) 04:06:09 435.225
Cosmos 2491 30 Jun 04:00:23 04:09:12 79° 81° (E) 04:17:55 435.465 / 435.565
KKS-1 30 Jun 04:06:23 04:10:48 60° 259° (W) 04:15:13 437.445
AO-7 30 Jun 04:11:35 04:16:15 17° 87° (E) 04:21:27 29.400- 29.500
SO-50 30 Jun 04:24:26 04:29:18 55° 242° (WSW) 04:34:02 436.795
ITAMSAT 1 30 Jun 04:31:51 04:37:04 71° 287° (WNW) 04:42:15 435.822/435.867
Oscar 19 30 Jun 04:32:48 04:36:37 21° 295° (WNW) 04:40:17 437.125/150
YUBILEINY 30 Jun 04:35:54 04:44:18 59° 92° (E) 04:52:48 435.215
HORYU 2 30 Jun 04:57:58 05:01:56 31° 96° (E) 05:05:57 437.375
STARS 30 Jun 05:12:41 05:15:58 20° 267° (W) 05:19:08 437.465
AIST 1 30 Jun 05:20:52 05:24:27 24° 271° (W) 05:27:54
MOZHAYETS 4 30 Jun 05:23:15 05:27:49 83° 76° (ENE) 05:32:25
JAS-2 30 Jun 05:33:44 05:40:06 79° 285° (WNW) 05:47:17 435.910
Gurwin Techsat 1B 30 Jun 05:36:42 05:40:31 20° 296° (WNW) 05:44:09 435.225
CUBESAT XI-V 30 Jun 05:39:25 05:40:39 11° 62° (ENE) 05:42:09 437.345
RS-15 30 Jun 05:44:53 05:55:30 51° 315° (NW) 06:06:24 29.354- 29.394
Cosmos 2491 30 Jun 05:58:56 06:05:11 21° 279° (W) 06:11:00 435.465 / 435.565
AO-7 30 Jun 06:01:58 06:10:24 86° 108° (ESE) 06:18:46 29.400- 29.500
Cosmos 2504 30 Jun 06:22:36 06:28:24 28° 86° (E) 06:34:18 435.465 / 435.565
PRISM 30 Jun 06:28:15 06:28:34 10° 62° (ENE) 06:29:07 437.425
YUBILEINY 30 Jun 06:34:10 06:41:43 31° 293° (WNW) 06:49:05 435.215
HORYU 2 30 Jun 06:34:49 06:38:27 24° 292° (WNW) 06:42:01 437.375
Cubesat XI-IV 30 Jun 07:03:16 07:07:15 21° 92° (E) 07:11:22 437.490
CUBESAT XI-V 30 Jun 07:12:45 07:17:28 84° 259° (W) 07:22:12 437.345
JAS-2 30 Jun 07:21:14 07:24:33 14° 300° (WNW) 07:27:41 435.910
STRAND 1 30 Jun 07:45:05 07:50:13 76° 75° (ENE) 07:55:23 437.568
CUSAT 1 30 Jun 07:55:59 07:58:30 13° 90° (E) 08:01:15 437.405
AO-7 30 Jun 07:56:03 08:02:20 23° 306° (NW) 08:08:19 29.400- 29.500
PRISM 30 Jun 07:59:19 08:03:27 76° 258° (WSW) 08:07:39 437.425
RS-15 30 Jun 08:03:10 08:11:33 23° 347° (NNW) 08:20:02 29.354- 29.394
CUTE-I 30 Jun 08:09:37 08:15:02 86° 104° (ESE) 08:20:24 437.470
Cosmos 2504 30 Jun 08:14:26 08:21:28 50° 284° (WNW) 08:28:23 435.465 / 435.565
BEESAT 3 30 Jun 08:20:04 08:21:42 12° 110° (ESE) 08:23:32 437.485
DANDE 30 Jun 08:22:55 08:27:46 19° 90° (E) 08:32:21 436.750
BEESAT 2 30 Jun 08:25:46 08:26:52 11° 109° (ESE) 08:28:13 435.950
Cubesat XI-IV 30 Jun 08:42:29 08:47:40 49° 289° (WNW) 08:52:47 437.490
O/OREOS (USA 219) 30 Jun 08:47:08 08:50:59 30° 105° (ESE) 08:54:54 437.305
AUBIESAT-1 30 Jun 08:53:31 08:56:41 45° 69° (ENE) 08:59:56 437.475
DOVE 4 30 Jun 09:11:37 09:13:21 13° 89° (E) 09:15:17 437.250
GONETS M04 30 Jun 09:13:47 09:19:59 23° 82° (E) 09:26:31
SEEDS 30 Jun 09:22:53 09:24:47 13° 89° (E) 09:26:53 437.485
M-CUBED/EXP-1 PRIME 30 Jun 09:23:02 09:26:15 53° 254° (WSW) 09:29:32 437.505
STRAND 1 30 Jun 09:27:47 09:30:06 12° 273° (W) 09:32:07 437.568
CUSAT 1 30 Jun 09:33:44 09:40:57 86° 99° (E) 09:46:31 437.405
BRITE-PL 30 Jun 09:39:16 09:43:45 79° 102° (ESE) 09:47:57 437.365/2234.400
GOMX 1 30 Jun 09:39:44 09:43:50 44° 98° (E) 09:47:49 467.674
HO-68 30 Jun 09:40:06 09:46:31 36° 96° (E) 09:53:00 435.675
AAUSAT CUBESAT 2 30 Jun 09:45:51 09:48:23 16° 91° (E) 09:51:05 437.432
ISS 30 Jun 09:46:01 09:47:44 14° 132° (SE) 09:49:34 145.825
CUTE-I 30 Jun 09:51:48 09:54:27 13° 300° (WNW) 09:56:50 437.470
BEESAT 3 30 Jun 09:55:10 09:59:12 60° 305° (NW) 10:03:17 437.485
BEESAT 2 30 Jun 10:00:22 10:04:27 67° 304° (NW) 10:08:35 435.950
CUTE 1.7 + AOD 2 30 Jun 10:00:40 10:04:45 43° 98° (E) 10:08:51 437.475
DANDE 30 Jun 10:02:53 10:10:47 77° 280° (W) 10:16:58 436.750
CANX-2 30 Jun 10:03:12 10:07:23 51° 99° (E) 10:11:34 2200.000
COMPASS 1 30 Jun 10:06:42 10:10:30 32° 96° (E) 10:14:19 437.405
CUBEBUG 2 30 Jun 10:16:47 10:19:04 15° 90° (E) 10:21:34 437.445
RS-15 30 Jun 10:20:14 10:29:16 26° 22° (NNE) 10:38:50 29.354- 29.394
O/OREOS (USA 219) 30 Jun 10:26:37 10:30:25 26° 302° (WNW) 10:34:11 437.305
CINEMA 3 30 Jun 10:31:20 10:35:20 45° 99° (E) 10:39:22 145.822/145.860
UNISAT 6 30 Jun 10:31:49 10:35:04 22° 68° (ENE) 10:38:23 437.425
VERMONT LUNAR 30 Jun 10:34:40 10:37:25 28° 157° (SSE) 10:40:12 437.305
DELFI C3 30 Jun 10:34:50 10:37:28 17° 92° (E) 10:40:13 145.870
ZACube-1 30 Jun 10:40:05 10:42:43 16° 91° (E) 10:45:30 437.345
QB50P1 30 Jun 10:42:50 10:44:23 12° 64° (ENE) 10:46:09 145.935-145.965
AIST 2 30 Jun 10:46:46 10:51:02 87° 302° (WNW) 10:55:20 435.215
DOVE 4 30 Jun 10:47:29 10:51:33 49° 287° (WNW) 10:55:32 437.250
Cosmos 2499 30 Jun 10:51:29 10:54:57 15° 81° (E) 10:58:51 435.465 / 435.565
SEEDS 30 Jun 10:56:48 11:00:57 52° 286° (WNW) 11:05:06 437.485
NANOSAT C BR1 30 Jun 10:57:42 11:00:25 17° 66° (ENE) 11:03:17 145.865
Oscar 11 30 Jun 10:58:45 11:02:57 47° 99° (E) 11:07:09 145.826/435.025
POLYITAN 1 30 Jun 11:04:41 11:07:51 21° 68° (ENE) 11:11:05 437.675
DUCHIFAT 1 30 Jun 11:05:57 11:09:02 21° 68° (ENE) 11:12:14 145.980
GONETS M04 30 Jun 11:07:14 11:16:02 74° 280° (W) 11:24:50
ANTELSAT 30 Jun 11:15:03 11:19:19 64° 75° (ENE) 11:23:35 437.575/2403.000
UWE-3 30 Jun 11:16:44 11:20:51 56° 100° (E) 11:25:01 435.000/436.395/437.385
FUNcube-1 30 Jun 11:17:24 11:21:23 42° 98° (E) 11:25:26 145.935
GOMX 1 30 Jun 11:19:02 11:21:38 15° 295° (WNW) 11:24:03 467.674
CUSAT 1 30 Jun 11:20:14 11:23:54 15° 292° (WNW) 11:26:52 437.405
AAUSAT CUBESAT 2 30 Jun 11:20:14 11:24:14 42° 287° (WNW) 11:28:11 437.432
ISS 30 Jun 11:20:36 11:23:50 64° 326° (NNW) 11:27:04 145.825
PHONESAT 2.4 30 Jun 11:21:36 11:23:51 17° 150° (SSE) 11:26:10 2401.200-2431.200
HO-68 30 Jun 11:27:39 11:34:23 45° 294° (WNW) 11:41:02 435.675
TIGRISAT 30 Jun 11:29:33 11:33:53 89° 102° (ESE) 11:38:11 435.000
QB50P2 30 Jun 11:34:11 11:38:12 43° 73° (ENE) 11:42:16 145.880/145.840
POPSAT HIP 1 30 Jun 11:36:09 11:40:11 44° 73° (ENE) 11:44:16 437.405
VELOX 1 30 Jun 11:36:42 11:38:49 14° 89° (E) 11:41:09 145.980
CUTE 1.7 + AOD 2 30 Jun 11:37:32 11:40:22 17° 293° (WNW) 11:43:05 437.475
HUMSAT D 30 Jun 11:37:47 11:41:27 31° 96° (E) 11:45:11 437.325/437.525
CANX-2 30 Jun 11:40:29 11:42:56 15° 294° (WNW) 11:45:13 2200.000
COMPASS 1 30 Jun 11:42:44 11:46:00 22° 291° (WNW) 11:49:11 437.405
BEESAT 2 30 Jun 11:42:58 11:43:22 10° 324° (NW) 11:43:37 435.950
BUGSAT 1 30 Jun 11:43:32 11:47:23 35° 71° (ENE) 11:51:15 437.445
DANDE 30 Jun 11:51:07 11:54:35 13° 295° (WNW) 11:57:22 436.750
CUBEBUG 2 30 Jun 11:52:05 11:56:04 44° 287° (WNW) 12:00:05 437.445
DX 1 30 Jun 12:02:55 12:07:09 49° 100° (E) 12:11:22 434.975-435.025
UNISAT 6 30 Jun 12:07:46 12:11:42 33° 263° (W) 12:15:34 437.425
DELFI C3 30 Jun 12:08:57 12:12:43 37° 288° (WNW) 12:16:27 145.870
CINEMA 3 30 Jun 12:09:47 12:12:14 15° 294° (WNW) 12:14:32 145.822/145.860
VERMONT LUNAR 30 Jun 12:11:00 12:14:09 74° 174° (S) 12:17:20 437.305
ZACube-1 30 Jun 12:15:21 12:19:18 40° 287° (WNW) 12:23:15 437.345
QB50P1 30 Jun 12:15:33 12:19:46 64° 259° (WSW) 12:24:00 145.935-145.965
AISAT 30 Jun 12:20:36 12:24:48 42° 98° (E) 12:29:00 437.250
AIST 2 30 Jun 12:28:16 12:30:18 13° 322° (NW) 12:32:12 435.215
UKube-1 30 Jun 12:31:06 12:35:28 87° 279° (W) 12:39:46 .
NANOSAT C BR1 30 Jun 12:31:55 12:35:58 42° 262° (W) 12:40:01 145.865
RS-15 30 Jun 12:33:05 12:44:40 65° 51° (NE) 12:56:44 29.354- 29.394
ESTCUBE 1 30 Jun 12:35:20 12:39:37 39° 97° (E) 12:43:52 437.505/2401.250
Oscar 11 30 Jun 12:36:01 12:38:48 16° 294° (WNW) 12:41:25 145.826/435.025
POLYITAN 1 30 Jun 12:39:41 12:43:34 33° 263° (W) 12:47:26 437.675
Cosmos 2499 30 Jun 12:40:07 12:47:14 84° 278° (W) 12:54:22 435.465 / 435.565
DUCHIFAT 1 30 Jun 12:40:46 12:44:39 34° 263° (W) 12:48:32 145.980
50 SAT 30 Jun 12:42:59 12:46:53 87° 285° (WNW) 12:50:48 437.505
CUBEBUG 1 30 Jun 12:53:38 12:57:55 52° 100° (E) 13:02:10 437.445
FUNcube-1 30 Jun 12:54:42 12:57:27 17° 293° (WNW) 13:00:03 145.935
UWE-3 30 Jun 12:54:57 12:56:59 13° 295° (WNW) 12:58:51 435.000/436.395/437.385
ANTELSAT 30 Jun 12:55:25 12:56:37 11° 272° (W) 12:57:32 437.575/2403.000
PHONESAT 2.4 30 Jun 12:58:05 13:01:28 54° 165° (SSE) 13:04:53 2401.200-2431.200
ISS 30 Jun 12:58:29 13:00:44 17° 345° (NNW) 13:02:57 145.825
GONETS M04 30 Jun 13:09:53 13:14:49 15° 304° (WNW) 13:19:11
VELOX 1 30 Jun 13:11:27 13:15:48 54° 287° (WNW) 13:20:05 145.980
QB50P2 30 Jun 13:11:40 13:14:22 16° 269° (W) 13:16:53 145.880/145.840
POPSAT HIP 1 30 Jun 13:13:42 13:16:20 15° 269° (W) 13:18:49 437.405
HUMSAT D 30 Jun 13:13:51 13:17:04 21° 291° (WNW) 13:20:11 437.325/437.525
BUGSAT 1 30 Jun 13:19:48 13:22:58 20° 267° (W) 13:26:01 437.445
TISAT 1 30 Jun 13:38:45 13:42:26 30° 96° (E) 13:46:08 437.305
DX 1 30 Jun 13:40:19 13:43:03 16° 295° (WNW) 13:45:36 434.975-435.025
Gurwin Techsat 1B 30 Jun 13:40:49 13:42:42 12° 60° (ENE) 13:44:51 435.225
VERMONT LUNAR 30 Jun 13:47:54 13:51:03 68° 190° (S) 13:54:15 437.305
AISAT 30 Jun 13:58:01 14:01:06 18° 294° (WNW) 14:04:03 437.250
Oscar 19 30 Jun 14:09:17 14:14:23 71° 75° (ENE) 14:19:32 437.125/150
ITAMSAT 1 30 Jun 14:11:51 14:15:46 23° 65° (ENE) 14:19:50 435.822/435.867
ESTCUBE 1 30 Jun 14:12:50 14:16:15 21° 293° (WNW) 14:19:33 437.505/2401.250
SPROUT 30 Jun 14:13:47 14:18:03 69° 285° (WNW) 14:22:17 437.525
CUBEBUG 1 30 Jun 14:31:18 14:33:53 15° 295° (WNW) 14:36:18 437.445
PHONESAT 2.4 30 Jun 14:35:57 14:39:26 82° 184° (S) 14:42:56 2401.200-2431.200
ISS 30 Jun 14:36:24 14:38:06 13° 5° (N) 14:39:49 145.825
Cosmos 2499 30 Jun 14:38:16 14:41:47 13° 301° (WNW) 14:44:51 435.465 / 435.565
RS-15 30 Jun 14:46:06 14:56:45 40° 251° (WSW) 15:07:27 29.354- 29.394
YUBILEINY 30 Jun 14:46:26 14:53:37 29° 66° (ENE) 15:01:03 435.215
BEESAT 30 Jun 15:05:59 15:10:34 43° 98° (E) 15:15:08 436.000
Cosmos 2491 30 Jun 15:08:45 15:13:48 18° 79° (E) 15:19:21 435.465 / 435.565
AO-7 30 Jun 15:10:19 15:16:46 27° 56° (NE) 15:23:29 29.400- 29.500
TISAT 1 30 Jun 15:14:45 15:18:05 23° 292° (WNW) 15:21:18 437.305
Gurwin Techsat 1B 30 Jun 15:16:39 15:21:58 87° 78° (ENE) 15:27:20 435.225
SWISSCUBE 30 Jun 15:20:43 15:25:31 67° 101° (E) 15:30:17 437.505
ITUPSAT 1 30 Jun 15:23:44 15:28:33 65° 102° (ESE) 15:33:19 437.325
VERMONT LUNAR 30 Jun 15:25:07 15:27:46 24° 205° (SSW) 15:30:24 437.305
JAS-2 30 Jun 15:47:21 15:52:08 40° 70° (ENE) 15:57:04 435.910
ITAMSAT 1 30 Jun 15:49:59 15:55:00 47° 261° (W) 16:00:02 435.822/435.867
Oscar 19 30 Jun 15:51:47 15:54:22 13° 272° (W) 15:56:40 437.125/150
HORYU 2 30 Jun 15:56:19 16:00:06 29° 69° (ENE) 16:03:59 437.375
KKS-1 30 Jun 15:57:59 16:01:37 25° 94° (E) 16:05:20 437.445
ISS 30 Jun 16:12:24 16:15:17 29° 25° (NNE) 16:18:11 145.825
AIST 1 30 Jun 16:13:31 16:16:13 17° 87° (E) 16:19:06
PHONESAT 2.4 30 Jun 16:14:00 16:17:21 44° 199° (SSW) 16:20:42 2401.200-2431.200
BEESAT 3 30 Jun 16:38:04 16:39:06 11° 37° (NE) 16:40:18 437.485
PCSat 30 Jun 16:40:57 16:44:53 21° 107° (ESE) 16:48:58 145.827
YUBILEINY 30 Jun 16:42:33 16:51:10 64° 267° (W) 16:59:45 435.215
BEESAT 2 30 Jun 16:44:13 16:44:45 10° 36° (NE) 16:45:25 435.950
BEESAT 30 Jun 16:44:31 16:48:08 21° 294° (WNW) 16:51:38 436.000
SWISSCUBE 30 Jun 17:00:13 17:02:52 14° 297° (WNW) 17:05:19 437.505
AO-7 30 Jun 17:00:34 17:08:54 75° 255° (WSW) 17:17:18 29.400- 29.500
Cosmos 2491 30 Jun 17:00:44 17:09:35 90° 97° (E) 17:18:28 435.465 / 435.565
STARS 30 Jun 17:00:55 17:05:18 76° 101° (E) 17:09:40 437.465
Gurwin Techsat 1B 30 Jun 17:01:12 17:02:47 11° 274° (W) 17:04:01 435.225
ITUPSAT 1 30 Jun 17:03:10 17:05:57 15° 297° (WNW) 17:08:32 437.325
MOZHAYETS 4 30 Jun 17:19:14 17:22:36 20° 92° (E) 17:26:06
HORYU 2 30 Jun 17:33:05 17:36:46 25° 265° (W) 17:40:23 437.375
JAS-2 30 Jun 17:33:29 17:37:34 22° 268° (W) 17:41:34 435.910
KKS-1 30 Jun 17:34:24 17:38:16 29° 291° (WNW) 17:42:04 437.445
ISS 30 Jun 17:48:42 17:51:44 37° 223° (SW) 17:54:44 145.825
AIST 1 30 Jun 17:49:25 17:53:34 40° 283° (WNW) 17:57:45
PHONESAT 2.4 30 Jun 17:53:18 17:54:54 12° 213° (SSW) 17:56:25 2401.200-2431.200
CUTE-I 30 Jun 17:53:36 17:57:12 19° 63° (ENE) 18:00:58 437.470
Cosmos 2504 30 Jun 18:05:12 18:12:38 56° 77° (ENE) 18:20:39 435.465 / 435.565
BEESAT 3 30 Jun 18:13:45 18:17:49 78° 56° (ENE) 18:21:49 437.485
BEESAT 2 30 Jun 18:19:32 18:23:38 71° 56° (NE) 18:27:39 435.950
PCSat 30 Jun 18:22:39 18:27:56 53° 304° (WNW) 18:33:16 145.827
Cubesat XI-IV 30 Jun 18:24:57 18:29:46 36° 68° (ENE) 18:34:40 437.490
SO-50 30 Jun 18:38:22 18:42:54 50° 118° (ESE) 18:47:38 436.795
STARS 30 Jun 18:39:55 18:41:12 11° 298° (WNW) 18:42:16 437.465
YUBILEINY 30 Jun 18:45:01 18:46:26 10° 285° (WNW) 18:47:03 435.215
MOZHAYETS 4 30 Jun 18:55:40 19:00:01 40° 288° (WNW) 19:04:21
O/OREOS (USA 219) 30 Jun 18:56:26 19:00:54 58° 65° (ENE) 19:05:22 437.305
AO-7 30 Jun 18:59:16 19:03:18 13° 275° (W) 19:06:41 29.400- 29.500
Cosmos 2491 30 Jun 19:01:42 19:07:56 20° 300° (WNW) 19:13:42 435.465 / 435.565
AIST 2 30 Jun 19:08:39 19:12:49 58° 55° (NE) 19:16:54 435.215
CUBESAT XI-V 30 Jun 19:10:11 19:13:58 24° 93° (E) 19:17:49 437.345
BRITE-PL 30 Jun 19:14:05 19:16:16 13° 63° (ENE) 19:18:41 437.365/2234.400
GONETS M04 30 Jun 19:26:19 19:26:45 10° 51° (NE) 19:27:56
CUTE-I 30 Jun 19:31:34 19:36:51 60° 259° (W) 19:42:11 437.470
PRISM 30 Jun 19:43:00 19:45:21 15° 91° (E) 19:47:53 437.425
STRAND 1 30 Jun 19:56:19 20:00:31 26° 94° (E) 20:04:48 437.568
Cosmos 2504 30 Jun 19:59:21 20:05:43 28° 274° (W) 20:12:12 435.465 / 435.565
BEESAT 2 30 Jun 20:00:40 20:01:10 10° 251° (WSW) 20:01:27 435.950
Cubesat XI-IV 30 Jun 20:05:14 20:09:56 30° 265° (W) 20:14:34 437.490
HO-68 30 Jun 20:09:20 20:15:03 28° 61° (ENE) 20:20:57 435.675
PCSat 30 Jun 20:11:14 20:12:44 11° 326° (NW) 20:14:01 145.827
CUSAT 1 30 Jun 20:13:27 20:16:05 36° 75° (ENE) 20:18:32 437.405
DOVE 4 30 Jun 20:16:34 20:19:40 17° 67° (ENE) 20:22:50 437.250
SO-50 30 Jun 20:19:51 20:23:46 24° 317° (NW) 20:27:41 436.795
O/OREOS (USA 219) 30 Jun 20:37:38 20:39:53 13° 260° (W) 20:41:55 437.305
AAUSAT CUBESAT 2 30 Jun 20:38:10 20:39:26 11° 64° (ENE) 20:40:53 437.432
GOMX 1 30 Jun 20:46:46 20:51:53 54° 74° (ENE) 20:56:45 467.674
DANDE 30 Jun 20:46:51 20:49:59 78° 79° (E) 20:52:38 436.750
CUBESAT XI-V 30 Jun 20:47:14 20:51:29 34° 290° (WNW) 20:55:38 437.345
BRITE-PL 30 Jun 20:48:34 20:54:12 89° 85° (E) 20:59:32 437.365/2234.400
AIST 2 30 Jun 20:48:53 20:50:56 13° 250° (WSW) 20:52:47 435.215
CUTE 1.7 + AOD 2 30 Jun 20:53:40 20:57:20 30° 71° (ENE) 21:01:03 437.475
CANX-2 30 Jun 20:56:09 20:59:58 36° 72° (ENE) 21:03:52 2200.000
COMPASS 1 30 Jun 20:58:19 21:01:30 22° 69° (ENE) 21:04:47 437.405
CUBEBUG 2 30 Jun 21:15:50 21:17:56 14° 66° (ENE) 21:20:11 437.445
PRISM 30 Jun 21:17:03 21:21:05 45° 288° (WNW) 21:25:04 437.425
GONETS M04 30 Jun 21:17:42 21:26:13 56° 76° (ENE) 21:34:43
DELFI C3 30 Jun 21:23:51 21:24:54 11° 64° (ENE) 21:26:10 145.870
CINEMA 3 30 Jun 21:32:47 21:37:09 44° 73° (ENE) 21:41:21 145.822/145.860
STRAND 1 30 Jun 21:35:05 21:39:51 38° 291° (WNW) 21:44:33 437.568
ZACube-1 30 Jun 21:37:00 21:39:08 14° 66° (ENE) 21:41:25 437.345
SEEDS 30 Jun 21:48:23 21:52:33 78° 258° (WSW) 21:56:45 437.485
DOVE 4 30 Jun 21:52:12 21:57:06 54° 260° (W) 22:01:46 437.250
Oscar 11 30 Jun 21:53:32 21:57:26 36° 71° (ENE) 22:01:23 145.826/435.025
HO-68 30 Jun 21:55:20 22:02:23 60° 258° (WSW) 22:09:27 435.675
AUBIESAT-1 30 Jun 22:07:13 22:11:08 41° 104° (ESE) 22:15:20 437.475
AAUSAT CUBESAT 2 30 Jun 22:10:27 22:14:32 64° 259° (W) 22:18:40 437.432
FUNcube-1 30 Jun 22:13:16 22:17:03 33° 71° (ENE) 22:20:50 145.935
UWE-3 30 Jun 22:13:49 22:17:54 45° 73° (ENE) 22:21:57 435.000/436.395/437.385
GOMX 1 30 Jun 22:26:38 22:30:18 18° 269° (W) 22:33:40 467.674
HUMSAT D 30 Jun 22:29:58 22:33:08 22° 69° (ENE) 22:36:22 437.325/437.525
CUTE 1.7 + AOD 2 30 Jun 22:29:59 22:33:18 22° 267° (W) 22:36:32 437.475
Cosmos 2499 30 Jun 22:30:06 22:36:56 34° 71° (ENE) 22:44:22 435.465 / 435.565
BRITE-PL 30 Jun 22:31:18 22:33:23 12° 273° (W) 22:35:05 437.365/2234.400
CANX-2 30 Jun 22:33:02 22:36:03 18° 268° (W) 22:38:58 2200.000
COMPASS 1 30 Jun 22:33:23 22:37:03 29° 265° (W) 22:40:41 437.405
VELOX 1 30 Jun 22:34:48 22:36:55 14° 64° (ENE) 22:39:15 145.980
M-CUBED/EXP-1 PRIME 30 Jun 22:37:12 22:41:17 78° 289° (WNW) 22:45:41 437.505
